ST-2

Last updated on Sun Jun 21 2026 00:03:05 GMT+0000 (Coordinated Universal Time)

1 37606U 11022B 26171.40944537 -.00000216 00000+0 00000+0 0 9999 2 37606 0.0174 69.2940 0001763 30.1644 44.5725 1.00271314 55311
UTC large
Height (km)
Speed (km/s)
/
Latitude / Longitude
Inclination (degrees)
Orbital Period (minutes)
Azimuth
Elevation
Range (km)
Doppler Factor

Next 0 passes for location: London (51.5072 / 0.1276)

No passes found over London.
ST-2